WXM80 ListenWXM80 Stop

You find our weather info also at:

UK Metoffice

WeatherCloud

Weather Underground

Northeastern Weather Network

AWEKAS

Citizen Weather Observer Program (CWOP)

HAMweather, WeatherForYou, PWS Weather


Weather Underground History page Text

Daily Summary for March 27, 2017 Units:  Metric    English   Both
« Previous Day
Next Day »
Daily Weekly Monthly Yearly Custom
  High: Low: Average:
Temperature: 8.4 °C 3.2 °C 4.9 °C
Dew Point: 8.2 °C 2.7 °C 4.5 °C
Humidity: 98 % 95 % 97 %
Wind Speed: 13.8 km/h 0 km/h 4.3 km/h
Wind Gust: 18.5 km/h - -
Wind:- - ENE
Pressure: 1026 hPa 1014.4 hPa -
Precipitation: 0 mm    
Historical Graphs
 
 
Tabular Data for March 27, 2017
Time Temperature Dew Point Pressure Wind Wind Speed Wind Gust Humidity Rainfall Rate (Hourly)
00:02 3.3 °C 2.7 °C 1026 hPa ENE 10 km/h 13 km/h 96 % 0 mm
00:07 3.3 °C 2.7 °C 1026 hPa ENE 9.7 km/h 14.5 km/h 96 % 0 mm
00:12 3.3 °C 2.7 °C 1026 hPa ENE 9 km/h 16.7 km/h 96 % 0 mm
00:17 3.3 °C 2.7 °C 1026 hPa East 9 km/h 13 km/h 96 % 0 mm
00:22 3.3 °C 2.7 °C 1026 hPa ENE 9.7 km/h 14.8 km/h 96 % 0 mm
00:27 3.3 °C 2.7 °C 1025.6 hPa ENE 9.7 km/h 16.1 km/h 96 % 0 mm
00:32 3.3 °C 2.7 °C 1025.6 hPa East 10.3 km/h 13 km/h 96 % 0 mm
00:38 3.3 °C 2.8 °C 1025.3 hPa ENE 10.1 km/h 14.8 km/h 97 % 0 mm
00:43 3.3 °C 2.8 °C 1025.3 hPa ENE 10.3 km/h 13 km/h 97 % 0 mm
00:48 3.3 °C 2.8 °C 1025.3 hPa ENE 9.7 km/h 14.8 km/h 97 % 0 mm
00:53 3.2 °C 2.8 °C 1025.3 hPa ENE 11.3 km/h 16.7 km/h 97 % 0 mm
00:58 3.2 °C 2.8 °C 1025.3 hPa ENE 10 km/h 13 km/h 97 % 0 mm
01:03 3.2 °C 2.8 °C 1024.9 hPa ENE 13.8 km/h 16.7 km/h 97 % 0 mm
01:08 3.2 °C 2.8 °C 1024.9 hPa East 13.4 km/h 16.7 km/h 97 % 0 mm
01:13 3.2 °C 2.7 °C 1024.6 hPa East 9.7 km/h 13 km/h 97 % 0 mm
01:18 3.2 °C 2.7 °C 1024.6 hPa East 10.5 km/h 14.8 km/h 97 % 0 mm
01:23 3.2 °C 2.7 °C 1024.6 hPa ENE 9 km/h 18.5 km/h 97 % 0 mm
01:28 3.2 °C 2.7 °C 1024.6 hPa ENE 9.2 km/h 14.8 km/h 97 % 0 mm
01:33 3.2 °C 2.7 °C 1024.3 hPa ENE 13 km/h 16.7 km/h 97 % 0 mm
01:38 3.2 °C 2.7 °C 1024.3 hPa ENE 11.3 km/h 16.7 km/h 97 % 0 mm
01:43 3.2 °C 2.7 °C 1024.3 hPa ENE 11.4 km/h 14.8 km/h 97 % 0 mm
01:48 3.2 °C 2.7 °C 1023.9 hPa East 10.5 km/h 14.8 km/h 97 % 0 mm
01:53 3.2 °C 2.8 °C 1023.9 hPa ENE 9.8 km/h 11.1 km/h 97 % 0 mm
01:58 3.2 °C 2.8 °C 1023.9 hPa ENE 11.6 km/h 16.7 km/h 97 % 0 mm
02:03 3.2 °C 2.8 °C 1023.9 hPa East 10.8 km/h 14.8 km/h 97 % 0 mm
02:08 3.2 °C 2.8 °C 1023.9 hPa ENE 10.9 km/h 13 km/h 97 % 0 mm
02:13 3.2 °C 2.8 °C 1023.9 hPa ENE 10.3 km/h 13 km/h 97 % 0 mm
02:19 3.2 °C 2.8 °C 1023.6 hPa East 8.7 km/h 14.8 km/h 97 % 0 mm
02:24 3.2 °C 2.8 °C 1023.6 hPa ENE 10.3 km/h 14.8 km/h 97 % 0 mm
02:29 3.2 °C 2.8 °C 1023.6 hPa East 8.5 km/h 13 km/h 97 % 0 mm
02:34 3.2 °C 2.8 °C 1023.6 hPa ENE 8.5 km/h 11.1 km/h 97 % 0 mm
02:39 3.2 °C 2.8 °C 1023.2 hPa ENE 10 km/h 13 km/h 97 % 0 mm
02:44 3.2 °C 2.8 °C 1023.2 hPa ENE 10 km/h 14.8 km/h 97 % 0 mm
02:49 3.2 °C 2.8 °C 1023.2 hPa ENE 10.6 km/h 14.8 km/h 97 % 0 mm
02:54 3.2 °C 2.8 °C 1023.2 hPa ENE 10.5 km/h 14.8 km/h 97 % 0 mm
02:59 3.2 °C 2.8 °C 1022.9 hPa ENE 12.2 km/h 16.7 km/h 97 % 0 mm
03:04 3.2 °C 2.8 °C 1022.9 hPa East 9.5 km/h 11.3 km/h 97 % 0 mm
03:09 3.3 °C 2.8 °C 1022.6 hPa ENE 10.5 km/h 13 km/h 97 % 0 mm
03:14 3.3 °C 2.8 °C 1022.6 hPa ENE 9.8 km/h 13 km/h 97 % 0 mm
03:19 3.3 °C 2.8 °C 1022.2 hPa East 8.7 km/h 13 km/h 97 % 0 mm
03:24 3.3 °C 2.8 °C 1022.2 hPa ENE 8.9 km/h 11.3 km/h 97 % 0 mm
03:29 3.3 °C 2.8 °C 1022.2 hPa East 8.9 km/h 13 km/h 97 % 0 mm
03:34 3.3 °C 2.9 °C 1021.9 hPa East 7.6 km/h 13 km/h 97 % 0 mm
03:39 3.3 °C 2.9 °C 1021.9 hPa ENE 9.8 km/h 13 km/h 97 % 0 mm
03:44 3.3 °C 2.9 °C 1021.9 hPa ENE 7.6 km/h 11.1 km/h 97 % 0 mm
03:49 3.3 °C 2.9 °C 1021.9 hPa East 9.2 km/h 14.8 km/h 97 % 0 mm
03:54 3.3 °C 2.9 °C 1021.9 hPa NE 8.9 km/h 13 km/h 97 % 0 mm
03:59 3.3 °C 2.9 °C 1021.6 hPa ENE 10.5 km/h 14.8 km/h 97 % 0 mm
04:04 3.3 °C 2.9 °C 1021.6 hPa ENE 8 km/h 11.1 km/h 97 % 0 mm
04:09 3.3 °C 2.9 °C 1021.6 hPa ENE 8.7 km/h 11.3 km/h 97 % 0 mm
04:14 3.3 °C 2.9 °C 1021.6 hPa East 9.2 km/h 9.7 km/h 97 % 0 mm
04:20 3.3 °C 2.9 °C 1021.6 hPa East 8.9 km/h 13 km/h 97 % 0 mm
04:25 3.3 °C 2.9 °C 1021.6 hPa ENE 8.5 km/h 14.8 km/h 97 % 0 mm
04:30 3.3 °C 2.9 °C 1021.2 hPa ENE 8 km/h 14.8 km/h 97 % 0 mm
04:35 3.4 °C 2.9 °C 1021.6 hPa ENE 11.6 km/h 18.5 km/h 97 % 0 mm
04:40 3.4 °C 2.9 °C 1021.6 hPa East 9.8 km/h 14.8 km/h 97 % 0 mm
04:45 3.4 °C 2.9 °C 1021.2 hPa ENE 11.6 km/h 14.8 km/h 97 % 0 mm
04:50 3.4 °C 2.9 °C 1021.2 hPa ENE 8 km/h 11.1 km/h 97 % 0 mm
04:55 3.4 °C 2.9 °C 1021.2 hPa ENE 7.2 km/h 13 km/h 97 % 0 mm
05:00 3.4 °C 2.9 °C 1021.2 hPa ENE 8.7 km/h 11.1 km/h 97 % 0 mm
05:05 3.4 °C 2.9 °C 1021.2 hPa East 8.9 km/h 11.3 km/h 97 % 0 mm
05:10 3.4 °C 3 °C 1020.9 hPa ENE 8.9 km/h 13 km/h 97 % 0 mm
05:15 3.4 °C 3 °C 1020.9 hPa ENE 8.5 km/h 14.8 km/h 97 % 0 mm
05:20 3.4 °C 3 °C 1020.9 hPa ENE 8.2 km/h 13 km/h 97 % 0 mm
05:25 3.4 °C 3 °C 1020.9 hPa ENE 8 km/h 11.1 km/h 97 % 0 mm
05:30 3.4 °C 3 °C 1021.2 hPa ENE 9.8 km/h 16.7 km/h 97 % 0 mm
05:35 3.4 °C 3 °C 1020.9 hPa ENE 8.7 km/h 12.9 km/h 97 % 0 mm
05:40 3.4 °C 3 °C 1020.9 hPa ENE 8.2 km/h 14.8 km/h 97 % 0 mm
05:45 3.4 °C 3 °C 1020.9 hPa East 7.7 km/h 13 km/h 97 % 0 mm
05:50 3.4 °C 3 °C 1020.5 hPa ENE 9.2 km/h 18.5 km/h 97 % 0 mm
05:55 3.4 °C 3 °C 1020.5 hPa ENE 10.9 km/h 13 km/h 97 % 0 mm
06:00 3.4 °C 3.2 °C 1020.5 hPa ENE 7.4 km/h 14.5 km/h 98 % 0 mm
06:05 3.4 °C 3.2 °C 1020.5 hPa ENE 7.7 km/h 9.3 km/h 98 % 0 mm
06:10 3.4 °C 3.2 °C 1020.2 hPa ENE 10 km/h 13 km/h 98 % 0 mm
06:16 3.4 °C 3.2 °C 1020.2 hPa ENE 5.6 km/h 14.8 km/h 98 % 0 mm
06:21 3.4 °C 3.2 °C 1019.9 hPa East 9.2 km/h 13 km/h 98 % 0 mm
06:26 3.4 °C 3.2 °C 1019.9 hPa East 9.2 km/h 13 km/h 98 % 0 mm
06:31 3.4 °C 3.2 °C 1019.9 hPa ENE 8.9 km/h 11.1 km/h 98 % 0 mm
06:32 3.4 °C 3.2 °C 1019.9 hPa East 8.7 km/h 12.9 km/h 98 % 0 mm
06:37 3.5 °C 3.2 °C 1019.9 hPa East 8.2 km/h 11.1 km/h 98 % 0 mm
06:42 3.5 °C 3.2 °C 1019.9 hPa East 9.2 km/h 11.1 km/h 98 % 0 mm
06:47 3.5 °C 3.2 °C 1019.9 hPa ENE 7.9 km/h 13 km/h 98 % 0 mm
06:52 3.5 °C 3.2 °C 1019.9 hPa East 8.2 km/h 11.1 km/h 98 % 0 mm
06:57 3.6 °C 3.3 °C 1019.5 hPa ENE 7.6 km/h 13 km/h 98 % 0 mm
07:02 3.5 °C 3.2 °C 1019.5 hPa East 9.7 km/h 12.9 km/h 98 % 0 mm
07:07 3.5 °C 3.2 °C 1019.5 hPa East 8 km/h 14.5 km/h 98 % 0 mm
07:12 3.5 °C 3.2 °C 1019.5 hPa ENE 9.7 km/h 16.1 km/h 98 % 0 mm
07:17 3.6 °C 3.3 °C 1019.5 hPa ENE 8 km/h 12.9 km/h 98 % 0 mm
07:22 3.6 °C 3.3 °C 1019.5 hPa East 9 km/h 12.9 km/h 98 % 0 mm
07:27 3.6 °C 3.3 °C 1019.5 hPa East 8 km/h 11.3 km/h 98 % 0 mm
07:32 3.6 °C 3.3 °C 1019.5 hPa East 4.8 km/h 12.9 km/h 98 % 0 mm
07:37 3.6 °C 3.3 °C 1019.2 hPa ENE 4.8 km/h 11.3 km/h 98 % 0 mm
07:42 3.7 °C 3.3 °C 1019.2 hPa East 9.7 km/h 9.7 km/h 98 % 0 mm
07:47 3.7 °C 3.4 °C 1019.2 hPa East 9.7 km/h 11.3 km/h 98 % 0 mm
07:52 3.7 °C 3.4 °C 1019.2 hPa East 8.2 km/h 9.3 km/h 98 % 0 mm
07:57 3.7 °C 3.4 °C 1019.2 hPa East 7.1 km/h 7.4 km/h 98 % 0 mm
08:03 3.7 °C 3.4 °C 1019.2 hPa ENE 5.8 km/h 7.4 km/h 98 % 0 mm
08:08 3.8 °C 3.5 °C 1019.2 hPa ENE 4.8 km/h 11.1 km/h 98 % 0 mm
08:13 3.8 °C 3.5 °C 1019.2 hPa ENE 5 km/h 6.4 km/h 98 % 0 mm
08:18 3.8 °C 3.5 °C 1018.8 hPa East 6.4 km/h 9.3 km/h 98 % 0 mm
08:23 3.8 °C 3.5 °C 1018.8 hPa ENE 5.8 km/h 8 km/h 98 % 0 mm
08:28 3.8 °C 3.6 °C 1018.5 hPa East 5.6 km/h 8 km/h 98 % 0 mm
08:33 3.8 °C 3.6 °C 1018.5 hPa East 4.8 km/h 9.3 km/h 98 % 0 mm
08:38 3.8 °C 3.6 °C 1018.5 hPa ENE 6 km/h 8 km/h 98 % 0 mm
08:43 3.9 °C 3.6 °C 1018.5 hPa East 3.7 km/h 5.6 km/h 98 % 0 mm
08:48 3.9 °C 3.6 °C 1018.5 hPa East 3.2 km/h 5.6 km/h 98 % 0 mm
08:53 3.9 °C 3.6 °C 1018.2 hPa East 3.7 km/h 5.6 km/h 98 % 0 mm
08:58 4 °C 3.7 °C 1018.2 hPa East 6.4 km/h 9.3 km/h 98 % 0 mm
09:03 4.1 °C 3.8 °C 1018.2 hPa East 5.3 km/h 8 km/h 98 % 0 mm
09:08 4.1 °C 3.8 °C 1018.2 hPa East 3.5 km/h 7.4 km/h 98 % 0 mm
09:13 4.1 °C 3.8 °C 1018.2 hPa East 4.8 km/h 7.4 km/h 98 % 0 mm
09:18 4.1 °C 3.8 °C 1018.2 hPa East 3.2 km/h 5.6 km/h 98 % 0 mm
09:23 4.1 °C 3.8 °C 1018.2 hPa ENE 2.9 km/h 7.4 km/h 98 % 0 mm
09:28 4.2 °C 3.9 °C 1018.2 hPa ENE 2.3 km/h 4.8 km/h 98 % 0 mm
09:33 4.2 °C 3.9 °C 1018.2 hPa ENE 1 km/h 3.2 km/h 98 % 0 mm
09:38 4.2 °C 3.9 °C 1018.5 hPa NE 0.6 km/h 3.2 km/h 98 % 0 mm
09:43 4.2 °C 3.9 °C 1018.8 hPa WNW 4.2 km/h 5.6 km/h 98 % 0 mm
09:48 4.2 °C 3.9 °C 1018.5 hPa WNW 1 km/h 3.7 km/h 98 % 0 mm
09:53 4.2 °C 3.9 °C 1018.2 hPa NNE 5.3 km/h 9.7 km/h 98 % 0 mm
09:58 4.2 °C 3.9 °C 1018.2 hPa NE 2.1 km/h 5.6 km/h 98 % 0 mm
10:03 4.2 °C 3.9 °C 1018.2 hPa ENE 3.9 km/h 5.6 km/h 98 % 0 mm
10:08 4.2 °C 3.9 °C 1018.2 hPa NNE 2.1 km/h 2.1 km/h 98 % 0 mm
10:14 4.2 °C 3.9 °C 1018.5 hPa North 2.4 km/h 3.7 km/h 98 % 0 mm
10:19 4.2 °C 3.9 °C 1018.2 hPa NNE 1.1 km/h 5.6 km/h 98 % 0 mm
10:24 4.2 °C 3.9 °C 1018.2 hPa ENE 0.6 km/h 5.6 km/h 98 % 0 mm
10:29 4.2 °C 3.9 °C 1018.2 hPa ENE 1.8 km/h 5.6 km/h 98 % 0 mm
10:34 4.1 °C 3.8 °C 1018.2 hPa ENE 1.9 km/h 3.7 km/h 98 % 0 mm
10:39 4.1 °C 3.8 °C 1017.8 hPa ENE 2.7 km/h 5.6 km/h 98 % 0 mm
10:44 4.1 °C 3.8 °C 1017.8 hPa ENE 2.6 km/h 3.7 km/h 98 % 0.25 mm
10:49 4.1 °C 3.8 °C 1017.8 hPa ENE 1.9 km/h 3.7 km/h 98 % 0.25 mm
10:54 4.1 °C 3.8 °C 1017.8 hPa ENE 0.3 km/h 3.7 km/h 98 % 0.25 mm
10:59 4.1 °C 3.8 °C 1017.8 hPa ENE 1.6 km/h 4.8 km/h 98 % 0.25 mm
11:04 4.2 °C 3.9 °C 1017.8 hPa ENE 0.2 km/h   98 % 0.25 mm
11:09 4.2 °C 3.9 °C 1017.5 hPa ENE 0.2 km/h 3.7 km/h 98 % 0.25 mm
11:14 4.2 °C 3.9 °C 1017.5 hPa ENE 0.8 km/h 3.2 km/h 98 % 0.25 mm
11:19 4.2 °C 3.9 °C 1017.5 hPa ENE 0.3 km/h 3.7 km/h 98 % 0.51 mm
11:24 4.3 °C 4 °C 1017.5 hPa ENE 0.8 km/h 1.9 km/h 98 % 0.51 mm
11:29 4.3 °C 4 °C 1017.5 hPa ENE 0.6 km/h 3.7 km/h 98 % 0.51 mm
11:34 4.3 °C 4 °C 1017.2 hPa ENE 1.1 km/h 3.7 km/h 98 % 0.51 mm
11:39 4.3 °C 4 °C 1016.8 hPa ENE 1.1 km/h 5.6 km/h 98 % 0.51 mm
11:44 4.3 °C 4 °C 1017.2 hPa Calm   1.9 km/h 98 % 0.25 mm
11:49 4.3 °C 4.1 °C 1017.2 hPa ENE 0.6 km/h 5.6 km/h 98 % 0.25 mm
11:54 4.3 °C 4.1 °C 1016.8 hPa ENE 1.8 km/h 4.8 km/h 98 % 0.25 mm
11:59 4.3 °C 4.1 °C 1016.8 hPa ENE 1.1 km/h 3.7 km/h 98 % 0.25 mm
12:04 4.4 °C 4.1 °C 1016.8 hPa ENE 3.9 km/h 5.6 km/h 98 % 0.25 mm
12:09 4.4 °C 4.2 °C 1016.8 hPa ENE 1.4 km/h 3.7 km/h 98 % 0.25 mm
12:14 4.4 °C 4.2 °C 1016.8 hPa ENE 1.3 km/h 5.6 km/h 98 % 0.25 mm
12:19 4.5 °C 4.2 °C 1016.8 hPa ENE 0.3 km/h 5.6 km/h 98 % 0 mm
12:24 4.6 °C 4.3 °C 1016.8 hPa ENE 1.3 km/h 5.6 km/h 98 % 0 mm
12:29 4.6 °C 4.3 °C 1016.5 hPa ENE 1.4 km/h 5.6 km/h 98 % 0 mm
12:34 4.7 °C 4.4 °C 1016.8 hPa ENE 0.5 km/h 3.7 km/h 98 % 0 mm
12:39 4.8 °C 4.5 °C 1016.5 hPa ENE 2.3 km/h 3.7 km/h 98 % 0 mm
12:40 4.8 °C 4.6 °C 1016.5 hPa ENE 1.4 km/h 3.7 km/h 98 % 0 mm
12:46 4.9 °C 4.6 °C 1016.5 hPa ENE 1.8 km/h 5.6 km/h 98 % 0 mm
12:51 5 °C 4.7 °C 1016.5 hPa ENE 3.2 km/h 7.4 km/h 98 % 0 mm
12:56 5.2 °C 4.9 °C 1016.5 hPa ENE 3.7 km/h 5.6 km/h 98 % 0 mm
13:01 5.4 °C 5.2 °C 1016.5 hPa ENE 2.7 km/h 5.6 km/h 98 % 0 mm
13:06 5.7 °C 5.4 °C 1016.5 hPa ENE 2.7 km/h 5.6 km/h 98 % 0 mm
13:11 5.8 °C 5.6 °C 1016.5 hPa ENE 4.2 km/h 5.6 km/h 98 % 0 mm
13:16 5.9 °C 5.6 °C 1016.5 hPa NE 4.7 km/h 5.6 km/h 98 % 0 mm
13:21 5.9 °C 5.7 °C 1016.5 hPa NE 2.6 km/h 5.6 km/h 98 % 0 mm
13:26 6.1 °C 5.8 °C 1016.5 hPa ENE 5.5 km/h 11.1 km/h 98 % 0 mm
13:31 6.4 °C 6.1 °C 1016.1 hPa NNE 6.3 km/h 6.4 km/h 98 % 0 mm
13:37 6.6 °C 6.3 °C 1016.1 hPa NE 4 km/h 5.6 km/h 98 % 0 mm
13:42 6.7 °C 6.4 °C 1016.1 hPa NE 4.2 km/h 7.4 km/h 98 % 0 mm
13:47 6.7 °C 6.4 °C 1016.1 hPa NE 3.2 km/h 5.6 km/h 98 % 0 mm
13:52 6.7 °C 6.4 °C 1016.1 hPa NE 3.9 km/h 6.4 km/h 98 % 0 mm
13:57 6.3 °C 6 °C 1016.1 hPa ENE 7.6 km/h 11.1 km/h 98 % 0 mm
14:02 5.9 °C 5.6 °C 1015.8 hPa ENE 3.4 km/h 5.6 km/h 98 % 0 mm
14:07 5.9 °C 5.6 °C 1015.8 hPa East 4.2 km/h 5.6 km/h 98 % 0 mm
14:12 5.8 °C 5.6 °C 1015.8 hPa ENE 4.5 km/h 7.4 km/h 98 % 0 mm
14:17 5.8 °C 5.5 °C 1015.8 hPa NE 1.9 km/h 5.6 km/h 98 % 0 mm
14:22 5.8 °C 5.6 °C 1015.8 hPa ENE 2.4 km/h 5.6 km/h 98 % 0 mm
14:27 5.9 °C 5.6 °C 1016.1 hPa ENE 0.8 km/h 3.7 km/h 98 % 0 mm
14:33 5.9 °C 5.6 °C 1015.8 hPa NNE 2.9 km/h 8 km/h 98 % 0 mm
14:38 5.9 °C 5.7 °C 1016.1 hPa NNE 0.8 km/h 3.7 km/h 98 % 0 mm
14:43 5.9 °C 5.7 °C 1016.1 hPa NNE 1.3 km/h 3.7 km/h 98 % 0 mm
14:48 5.9 °C 5.7 °C 1015.8 hPa NNE 1.1 km/h 3.7 km/h 98 % 0 mm
14:53 5.9 °C 5.6 °C 1015.8 hPa NNE 1.3 km/h 3.7 km/h 98 % 0 mm
14:58 5.8 °C 5.6 °C 1015.8 hPa Calm     98 % 0 mm
15:03 5.8 °C 5.5 °C 1015.8 hPa Calm   1.9 km/h 98 % 0 mm
15:08 5.8 °C 5.5 °C 1015.8 hPa NNE 0.3 km/h 1.9 km/h 98 % 0 mm
15:13 5.7 °C 5.4 °C 1015.8 hPa Calm   1.9 km/h 98 % 0 mm
15:18 5.8 °C 5.5 °C 1015.8 hPa NNE 1.4 km/h 3.7 km/h 98 % 0 mm
15:23 5.9 °C 5.7 °C 1015.5 hPa NNE 0.3 km/h 1.9 km/h 98 % 0 mm
15:28 6.2 °C 5.9 °C 1015.5 hPa NNE 1.4 km/h 3.7 km/h 98 % 0 mm
15:29 6.2 °C 5.9 °C 1015.5 hPa NNE 3.2 km/h 5.6 km/h 98 % 0 mm
15:34 6.4 °C 6.1 °C 1015.5 hPa NNE 1.4 km/h 5.6 km/h 98 % 0 mm
15:35 6.4 °C 6.2 °C 1015.5 hPa NNE 0.5 km/h 1.9 km/h 98 % 0 mm
15:36 6.4 °C 6.2 °C 1015.5 hPa Calm     98 % 0 mm
15:37 6.4 °C 6.2 °C 1015.5 hPa NNE 1 km/h 1.9 km/h 98 % 0 mm
15:38 6.4 °C 6.2 °C 1015.5 hPa NNE 0.6 km/h 3.7 km/h 98 % 0 mm
15:42 6.4 °C 6.2 °C 1015.5 hPa Calm     98 % 0 mm
15:47 6.5 °C 6.2 °C 1015.1 hPa NNE 1.9 km/h 3.7 km/h 98 % 0 mm
15:52 6.6 °C 6.3 °C 1015.1 hPa Calm   1.9 km/h 98 % 0 mm
15:54 6.7 °C 6.4 °C 1015.1 hPa NNE 2.1 km/h 3.7 km/h 98 % 0 mm
15:55 6.7 °C 6.4 °C 1015.1 hPa NNE 0.5 km/h 1.9 km/h 98 % 0 mm
15:57 6.7 °C 6.4 °C 1015.1 hPa Calm   1.9 km/h 98 % 0 mm
16:01 6.8 °C 6.5 °C 1015.5 hPa NNE 0.2 km/h 1.9 km/h 98 % 0 mm
16:06 6.9 °C 6.7 °C 1015.1 hPa NNE 2.1 km/h 5.6 km/h 98 % 0 mm
16:11 7 °C 6.7 °C 1015.1 hPa NNE 1 km/h 3.7 km/h 98 % 0 mm
16:16 7.1 °C 6.8 °C 1015.1 hPa NNE 0.6 km/h 3.7 km/h 98 % 0 mm
16:21 6.9 °C 6.7 °C 1015.1 hPa NNE 0.2 km/h 1.9 km/h 98 % 0 mm
16:26 6.8 °C 6.6 °C 1015.1 hPa Calm     98 % 0 mm
16:31 6.9 °C 6.7 °C 1015.1 hPa Calm   1.9 km/h 98 % 0 mm
16:36 7 °C 6.7 °C 1015.1 hPa Calm   1.9 km/h 98 % 0 mm
16:41 7.1 °C 6.8 °C 1015.1 hPa Calm   1.9 km/h 98 % 0 mm
16:46 7.1 °C 6.8 °C 1014.8 hPa NNE 3.7 km/h 5.6 km/h 98 % 0 mm
16:51 7.1 °C 6.8 °C 1014.8 hPa Calm     98 % 0 mm
16:56 7.1 °C 6.8 °C 1014.8 hPa Calm   1.9 km/h 98 % 0 mm
17:01 7.2 °C 6.9 °C 1014.8 hPa Calm     98 % 0 mm
17:06 7.3 °C 7 °C 1014.8 hPa Calm     98 % 0 mm
17:11 7.4 °C 7.1 °C 1014.4 hPa Calm     98 % 0 mm
17:16 7.5 °C 7.2 °C 1014.4 hPa Calm   1.9 km/h 98 % 0 mm
17:22 7.6 °C 7.3 °C 1014.4 hPa Calm     98 % 0 mm
17:26 7.7 °C 7.4 °C 1014.4 hPa Calm     98 % 0 mm
17:31 7.8 °C 7.6 °C 1014.4 hPa Calm     98 % 0 mm
17:37 7.9 °C 7.7 °C 1014.4 hPa Calm   3.7 km/h 98 % 0 mm
17:42 8.1 °C 7.8 °C 1014.4 hPa Calm     98 % 0 mm
17:47 8.2 °C 7.9 °C 1014.4 hPa Calm     98 % 0 mm
17:52 8.3 °C 8.1 °C 1014.8 hPa Calm     98 % 0 mm
17:57 8.4 °C 8.2 °C 1014.8 hPa Calm     98 % 0 mm
18:02 8.4 °C 8.2 °C 1014.4 hPa Calm     98 % 0 mm
18:07 8.4 °C 8.2 °C 1014.4 hPa Calm     98 % 0 mm
18:12 8.4 °C 8.1 °C 1014.8 hPa Calm     98 % 0 mm
18:17 8.4 °C 8.1 °C 1014.8 hPa Calm     98 % 0 mm
18:22 8.3 °C 8.1 °C 1014.4 hPa NNE 2.6 km/h 4.8 km/h 98 % 0 mm
18:27 8.3 °C 8 °C 1014.4 hPa Calm   1.9 km/h 98 % 0 mm
18:32 8.2 °C 7.9 °C 1014.4 hPa Calm   1.9 km/h 98 % 0 mm
18:37 8.1 °C 7.6 °C 1014.4 hPa NNE 1 km/h 1.9 km/h 97 % 0 mm
18:42 7.8 °C 7.4 °C 1014.4 hPa Calm   1.9 km/h 97 % 0 mm
18:47 7.7 °C 7.3 °C 1014.4 hPa NNE 1.1 km/h 3.7 km/h 97 % 0 mm
18:52 7.6 °C 7.1 °C 1014.4 hPa Calm     97 % 0 mm
18:57 7.4 °C 6.8 °C 1014.8 hPa Calm     96 % 0 mm
19:02 7.3 °C 6.7 °C 1014.4 hPa Calm     96 % 0 mm
19:07 7.2 °C 6.6 °C 1014.8 hPa Calm     96 % 0 mm
19:12 7.1 °C 6.4 °C 1014.4 hPa Calm     96 % 0 mm
19:17 7 °C 6.4 °C 1014.8 hPa Calm     96 % 0 mm
19:22 6.9 °C 6.3 °C 1014.4 hPa Calm     96 % 0 mm
19:27 6.8 °C 6.2 °C 1014.4 hPa Calm     96 % 0 mm
19:32 6.7 °C 5.9 °C 1014.4 hPa Calm     95 % 0 mm
19:37 6.7 °C 6.1 °C 1014.4 hPa Calm     96 % 0 mm
19:42 6.6 °C 6 °C 1014.4 hPa Calm     96 % 0 mm
19:47 6.6 °C 5.9 °C 1014.4 hPa Calm     96 % 0 mm
19:52 6.4 °C 5.9 °C 1014.4 hPa Calm     96 % 0 mm
19:57 6.4 °C 5.7 °C 1014.4 hPa Calm     95 % 0 mm
20:02 6.3 °C 5.6 °C 1014.8 hPa Calm     95 % 0 mm
20:07 6.3 °C 5.6 °C 1014.8 hPa Calm     95 % 0 mm
20:12 6.2 °C 5.6 °C 1014.8 hPa Calm     96 % 0 mm
20:17 6.2 °C 5.6 °C 1014.8 hPa Calm     96 % 0 mm
20:22 6.1 °C 5.5 °C 1014.8 hPa Calm     96 % 0 mm
20:27 6.1 °C 5.4 °C 1014.8 hPa Calm     96 % 0 mm
20:32 6.1 °C 5.4 °C 1014.8 hPa Calm     96 % 0 mm
20:37 5.9 °C 5.3 °C 1014.8 hPa Calm   1.6 km/h 96 % 0 mm
20:42 5.8 °C 5.3 °C 1015.1 hPa Calm     96 % 0 mm
20:47 5.7 °C 5 °C 1015.1 hPa Calm     95 % 0 mm
20:52 5.6 °C 4.9 °C 1015.1 hPa Calm     95 % 0 mm
20:57 5.6 °C 4.8 °C 1015.1 hPa Calm     95 % 0 mm
21:02 5.4 °C 4.7 °C 1015.1 hPa NNE 1.9 km/h 3.7 km/h 95 % 0 mm
21:07 5.3 °C 4.6 °C 1015.5 hPa NNE 2.4 km/h 3.2 km/h 95 % 0 mm
21:13 5.2 °C 4.5 °C 1015.5 hPa Calm     95 % 0 mm
21:18 5.2 °C 4.4 °C 1015.5 hPa NNE 0.2 km/h 1.9 km/h 95 % 0 mm
21:23 5.1 °C 4.3 °C 1015.5 hPa NE 1.9 km/h 5.6 km/h 95 % 0 mm
21:28 4.9 °C 4.2 °C 1015.5 hPa NE 0.8 km/h 1.9 km/h 95 % 0 mm
21:33 4.8 °C 4.1 °C 1015.5 hPa NE 2.1 km/h 3.7 km/h 95 % 0 mm
21:38 4.7 °C 4 °C 1015.5 hPa NE 0.3 km/h 1.9 km/h 95 % 0 mm
21:43 4.7 °C 4.1 °C 1015.5 hPa NE 0.5 km/h 1.9 km/h 96 % 0 mm
21:48 4.6 °C 4.1 °C 1015.5 hPa NE 0.2 km/h 3.7 km/h 96 % 0 mm
21:53 4.6 °C 4.1 °C 1015.5 hPa NE 2.1 km/h 3.7 km/h 96 % 0 mm
21:58 4.7 °C 4.1 °C 1015.5 hPa ENE 3.7 km/h 5.6 km/h 96 % 0 mm
22:00 4.7 °C 4.1 °C 1015.5 hPa ENE 4.3 km/h 5.6 km/h 96 % 0 mm
22:05 4.7 °C 4.1 °C 1015.5 hPa ENE 3.2 km/h 4.8 km/h 96 % 0 mm
22:10 4.8 °C 4.2 °C 1015.5 hPa ENE 3.5 km/h 5.6 km/h 96 % 0 mm
22:15 4.8 °C 4.4 °C 1015.5 hPa East 4 km/h 7.4 km/h 97 % 0 mm
22:20 4.8 °C 4.4 °C 1015.8 hPa East 3.5 km/h 8 km/h 97 % 0 mm
22:25 4.8 °C 4.4 °C 1015.5 hPa East 3.5 km/h 5.6 km/h 97 % 0 mm
22:30 4.8 °C 4.3 °C 1015.5 hPa East 2.7 km/h 5.6 km/h 97 % 0 mm
22:35 4.8 °C 4.4 °C 1015.5 hPa East 4.5 km/h 7.4 km/h 97 % 0 mm
22:41 4.8 °C 4.4 °C 1015.5 hPa East 2.6 km/h 5.6 km/h 97 % 0 mm
22:46 4.9 °C 4.4 °C 1015.5 hPa ENE 4.5 km/h 5.6 km/h 97 % 0 mm
22:51 4.9 °C 4.4 °C 1015.5 hPa ENE 3.2 km/h 5.6 km/h 97 % 0 mm
22:56 4.9 °C 4.5 °C 1015.5 hPa ENE 4.2 km/h 7.4 km/h 97 % 0 mm
23:01 4.9 °C 4.5 °C 1015.1 hPa East 5 km/h 9.3 km/h 97 % 0 mm
23:06 5.1 °C 4.6 °C 1015.5 hPa East 4.8 km/h 8 km/h 97 % 0 mm
23:11 5.1 °C 4.6 °C 1015.1 hPa East 4.7 km/h 5.6 km/h 97 % 0 mm
23:16 5.2 °C 4.7 °C 1015.5 hPa East 4.7 km/h 7.4 km/h 97 % 0 mm
23:21 5.2 °C 4.7 °C 1015.5 hPa East 6.3 km/h 9.3 km/h 97 % 0 mm
23:27 5.2 °C 4.7 °C 1015.5 hPa East 6.1 km/h 9.3 km/h 97 % 0 mm
23:32 5.2 °C 4.7 °C 1015.5 hPa East 7.6 km/h 11.3 km/h 97 % 0 mm
23:37 5.1 °C 4.7 °C 1015.5 hPa East 6.6 km/h 9.3 km/h 97 % 0 mm
23:42 5.1 °C 4.7 °C 1015.8 hPa East 5 km/h 11.1 km/h 97 % 0 mm
23:47 5.1 °C 4.6 °C 1015.8 hPa East 7.2 km/h 11.1 km/h 97 % 0 mm
23:52 5.1 °C 4.6 °C 1015.5 hPa ENE 9 km/h 11.3 km/h 97 % 0 mm
23:57 5.1 °C 4.6 °C 1015.5 hPa East 9.2 km/h 11.1 km/h 97 % 0 mm
Crab Meadow Weather
Compliments of Weather Underground - 3 mb

Script developed by  Jim McMurry - jmcmurry@mwt.net Adapted for the template by  Wim van der Kuil - Leuven-Template.eu

Weather Terms: Heavy Snow Warning - Snowfall of 6 inches or more in 12 hours or less, or 8 inches or more in 24 hours or less.